Content
SEND FEEDBACK

Daily
Averages
Monthly
Summary
United States of America

PUT IN BAY, OHIO


Home > North America > United States > Ohio
Elevation: 171 meters     Latitude: 41 39N     Longitude: 082 48W

WEATHER
 
SELECT A DAY
Number of Records: 123,151;   Date Range: 12/10/00 - 9/21/14
 
SHARE

PRINT THIS DATA

[ ← Previous Day ]
WEATHER ALMANAC - 23 JANUARY, 2013
[ Next Day → ]
[ °F ]   °C
Weather ElementAverageHighLow
Temperature-11 °C-8.3 °C (7:00 pm)-14.1 °C (7:00 am)
Dewpoint-15.8 °C-11.3 °C (11:00 pm)-18.4 °C (8:00 am)
Humidity66.8 %84 % (11:00 pm)45 % (7:00 pm)
Barometer1024 hPa1027.1 hPa (3:00 am)1020 hPa (11:00 pm)
Wind Speed12.6 km/h22.2 km/h (3:00 pm)
Wind Gust33.3 km/h (3:00 pm)
Weather ElementAverage
Wind DirectionW (266.3 °)

Weather ElementTotal
Precipitation---
Heating Degree Days29.6 (Base 18.3)
Averaged from 27 records on 23 January, 2013
WEATHER CONDITIONS BREAKOUT
WIND DIRECTION BREAKOUT
WEATHER BY HOUR - 23 JANUARY, 2013
[ °F ]   °C
Local TimeTemperatureDewpointHumidityBarometerVisibilityWind DirectionWind SpeedGust SpeedPrecipitationEventsConditions
1:00 AM-12.8 °C-17.8 °C52 %1026.8 hPaWest (280°)16.7 km/h
1:00 AM-12.9 °C-18 °C66 %1026.8 hPaWest (280°)16.7 km/h
2:00 AM-13.1 °C-17.8 °C68 %1026.8 hPaWNW (290°)14.8 km/h
3:00 AM-13.4 °C-18 °C69 %1027.1 hPaWNW (300°)13 km/h
4:00 AM-13.6 °C-17.9 °C71 %1026.8 hPaWNW (300°)5.6 km/h
5:00 AM-13.8 °C-18.3 °C69 %1026.4 hPaWest (280°)7.4 km/h
6:00 AM-14 °C-18.3 °C71 %1026.8 hPaWNW (300°)5.6 km/h
7:00 AM-13.9 °C-18.3 °C57 %1026.8 hPaWest (280°)5.6 km/h
7:00 AM-14.1 °C-18.3 °C71 %1026.8 hPaWest (280°)5.6 km/h
8:00 AM-13.9 °C-18.4 °C69 %1026.8 hPaWest (270°)7.4 km/h
9:00 AM-12.9 °C-17.9 °C67 %1026.8 hPaWest (270°)5.6 km/h
10:00 AM-11.7 °C-17.9 °C61 %1026.4 hPaWest (270°)9.3 km/h
11:00 AM-10.8 °C-15.9 °C67 %1026.1 hPaWSW (240°)14.8 km/h
12:00 PM-10.3 °C-13.7 °C77 %1025.4 hPaWSW (240°)18.5 km/h
1:00 PM-10 °C-13.3 °C66 %1023.7 hPaSW (230°)16.7 km/h
1:00 PM-9.8 °C-13.5 °C75 %1023.7 hPaSW (230°)16.7 km/h
2:00 PM-9.1 °C-13.6 °C70 %1022.7 hPaWSW (240°)20.4 km/h
3:00 PM-8.7 °C-14.1 °C66 %1022 hPaWSW (250°)22.2 km/h33.3 km/h
4:00 PM-8.4 °C-14.8 °C61 %1021.7 hPaWSW (240°)20.4 km/h
5:00 PM-8.5 °C-15.5 °C58 %1020.7 hPaWSW (240°)16.7 km/h
6:00 PM-8.7 °C-15.8 °C57 %1020.7 hPaWest (260°)13 km/h
7:00 PM-8.3 °C-15 °C45 %1020.7 hPaWest (260°)11.1 km/h
7:00 PM-8.6 °C-15.1 °C60 %1020.7 hPaWest (260°)11.1 km/h
8:00 PM-8.5 °C-14.1 °C65 %1020.3 hPaWest (260°)16.7 km/h
9:00 PM-8.8 °C-11.9 °C79 %1020.3 hPaWest (260°)13 km/h
10:00 PM-8.9 °C-11.4 °C82 %1020.3 hPaWest (280°)7.4 km/h
11:00 PM-9 °C-11.3 °C84 %1020 hPaWNW (300°)5.6 km/h
Hourly data recorded from CXHA, located 0 kilometers away from Put In Bay, Ohio







STORIES FROM OUR PARTNERS